Regional Weather Roundup
Issued by NWS

Home | Current Version | Previous Version | Graphics & Text | Print | Product List | Glossary Off
Versions: 1 2 3 4 5 6 7 8 9 10 11 12 13 14 15 16 17 18 19 20 21 22 23 24 25 26 27 28 29 30 31 32 33 34 35 36 37 38 39 40 41 42 43 44 45 46 47 48 49 50

000
ASUS43 KDMX 261104
RWRIA

WEATHER ROUNDUP FOR IOWA
NATIONAL WEATHER SERVICE DES MOINES IA
  ISSUED BY NWS QUAD CITIES IA IL
500 AM CST MON JAN 26 2015

NOTE: "FAIR" INDICATES FEW OR NO CLOUDS BELOW 12,000 FEET WITH NO
SIGNIFICANT WEATHER AND/OR OBSTRUCTIONS TO VISIBILITY.

* - THESE STATIONS ARE NOT NWS STATIONS...THUS NOT UNDER NWS
QUALITY CONTROL.  THEY ALSO DO NOT REPORT WEATHER SUCH
AS PRECIPITATION OR FOG.

IAZ001>003-012>014-020>022-031>034-043>046-261200-
   NORTHWEST IOWA

CITY           SKY/WX    TMP DP  RH WIND       PRES   REMARKS
CARROLL *      CLOUDY    30  30 100 S14       29.89F WCI  20
DENNISON *     MOCLDY    30  30 100 S9        29.88F WCI  22
LE MARS *      PTCLDY    32  30  93 S10       29.84F WCI  24
ORANGE CITY *  MOCLDY    34  30  86 S12       29.80F WCI  25
SIOUX CITY     PTCLDY    33  29  85 S9        29.86F WCI  25
SPENCER        MIX PCPN  33  30  88 S8        29.83F WCI  26
$$

IAZ055>058-069>071-079>083-090>094-261200-
   SOUTHWEST IOWA

CITY           SKY/WX    TMP DP  RH WIND       PRES   REMARKS
ATLANTIC *     PTCLDY    28  27  93 S9        29.96F WCI  20
AUDUBON *      FAIR      28  25  86 S10       29.92F WCI  19
CLARINDA *     CLEAR     23  23 100 SE3       30.01S
COUNCIL BLFS * CLEAR     30  30 100 S8        29.93F WCI  23
CRESTON *      MOCLDY    28  28 100 SW10      29.98R WCI  19
HARLAN *       PTCLDY    27  27 100 S7        29.97F WCI  19
LAMONI         MOCLDY    29  26  89 SW10      29.99F WCI  20
RED OAK *      CLEAR     23  23 100 CALM      29.98R
$$

IAZ047>049-059>061-072>074-084-261200-
   CENTRAL IOWA

CITY           SKY/WX    TMP DP  RH WIND       PRES   REMARKS
AMES           CLOUDY    31  26  82 S10       29.93F WCI  22
ANKENY *       CLOUDY    32  27  80 SW7       29.98R WCI  26
BOONE *        CLOUDY    30  28  93 SW12      29.89F WCI  21
CHARITON *     CLOUDY    30  27  86 SW7       29.99R WCI  23
DES MOINES     CLOUDY    32  26  78 W6        30.00R WCI  26
GRINNELL *     CLOUDY    29  26  86 SW3       29.98R
KNOXVILLE *    CLOUDY    30  27  86 SW6       29.98R WCI  24
MARSHALLTOWN   CLOUDY    29  26  89 SW10      29.92F WCI  20
PELLA *        CLOUDY    31  27  86 CALM      30.00R
PERRY *          N/A     32  30  91 S10       29.93F WCI  24
$$

IAZ004>006-015-016-023>025-035-036-261200-
   NORTH CENTRAL IOWA

CITY           SKY/WX    TMP DP  RH WIND       PRES   REMARKS
ALGONA *       CLOUDY    32  32 100 SW17      29.86F WCI  21
CLARION *      CLOUDY    30  30 100 SW16      29.88F WCI  19
ESTHERVILLE    CLOUDY    31  30  96 S15       29.81F WCI  20
FORT DODGE *   CLOUDY    30  27  86 SW12      29.90F WCI  21
MASON CITY     CLOUDY    29  26  89 SW13      29.87F WCI  19
WEBSTER CITY * CLOUDY    30  30 100 S16       29.87F WCI  19
IOWA FALLS *   CLOUDY    30  26  88 S15       29.86F WCI  19
$$

IAZ007>011-017>019-026>030-037>042-050>054-066-261200-
   NORTHEAST IOWA

CITY           SKY/WX    TMP DP  RH WIND       PRES   REMARKS
CEDAR RAPIDS   CLOUDY    21  16  81 S7        29.99R WCI  12
CHARLES CITY * CLOUDY    28  27  93 S13       29.87F WCI  18
CLINTON *      CLOUDY    12   9  85 W3        30.02R
DECORAH *      CLOUDY    23  18  80 S9G15     29.88F WCI  13
DUBUQUE        CLOUDY    17  12  80 S7        29.93F WCI   8
MONTICELLO *   CLOUDY    21  18  86 S7        29.96F WCI  13
OELWEIN *      CLOUDY    23  18  80 S13       29.91F WCI  11
WATERLOO       CLOUDY    25  23  92 S16       29.87F WCI  12
$$

IAZ064-065-067-068-078-261200-
   EAST CENTRAL IOWA

CITY           SKY/WX    TMP DP  RH WIND       PRES   REMARKS
DAVENPORT      CLOUDY    15  10  80 CALM      29.99F
IOWA CITY      CLOUDY    22  16  78 S3        30.03R
MT. PLEASANT * CLOUDY    23  19  83 S5        30.00F WCI  17
MUSCATINE *    CLOUDY    23  18  80 CALM      30.02R
QUAD CITIES    CLOUDY    16  12  84 CALM      30.01F
$$

IAZ062-063-075>077-085>089-095>099-261200-
   SOUTHEAST IOWA

CITY           SKY/WX    TMP DP  RH WIND       PRES   REMARKS
BURLINGTON     CLOUDY    23  18  81 SW6       29.99F WCI  16
FAIRFIELD *    CLOUDY    27  21  80 S5        30.01R WCI  21
FORT MADISON * CLOUDY    25  21  86 S3        30.00F
KEOKUK *       CLOUDY    25  21  86 CALM      30.01F
OTTUMWA        CLOUDY    29  26  89 SW5       29.99R WCI  24
WASHINGTON *   CLOUDY    23  21  93 S5        30.02R WCI  17
$$

ABBREVIATIONS USED IN REMARKS
   TC - TEMPERATURES IN CELSIUS
  WCI - WIND CHILL INDEX
   HX - HEAT INDEX
  VSB - VISIBILITY
$$


USA.gov is the U.S. government's official web portal to all federal, state and local government web resources and services.